Wind_Speed
50 50 49 48 49 48 47 46 45 44 43 43 42 42 41 41 40 39 39 38 37 37 36 35 34 33 32 32 32 32 33 35 38 41 45 46 42 40 40 40 38 38 38 37 37 36 34 32 31 31 29 29 28 27 26 25 24 22 20 19 20 23 25 24 21 18 16 17 16 14 13 13 14 14 13 12 10 9 7 6 4 2 2 1 2 1 1 3
51 50 48 48 49 49 48 47 47 46 46 44 44 43 43 43 43 42 41 40 40 39 38 37 37 36 35 34 34 33 33 34 36 39 39 38 38 40 42 42 41 40 39 38 38 37 36 35 32 31 30 29 29 28 27 26 25 23 23 23 24 26 27 24 21 20 18 18 19 17 16 15 16 16 16 14 13 11 9 6 5 3 2 2 3 3 2 3
51 50 48 47 48 48 48 48 47 47 46 46 45 44 43 42 43 43 43 43 43 42 40 40 39 38 38 37 36 35 34 35 38 37 33 32 34 36 40 43 43 41 40 39 38 38 38 37 34 32 31 30 30 29 28 28 27 26 26 26 27 29 27 24 22 22 20 19 20 20 19 18 18 18 18 17 16 15 11 7 6 5 5 6 6 5 4 4
53 51 50 48 46 46 46 45 45 46 46 46 45 43 42 41 41 41 42 43 43 43 42 42 41 40 40 39 38 36 35 37 40 35 29 31 32 33 37 41 43 43 42 41 39 39 38 38 36 34 33 32 32 31 29 30 28 28 29 28 29 30 27 25 24 23 22 21 22 22 21 20 20 21 20 19 19 19 15 11 9 8 9 10 9 7 6 5
54 52 51 50 47 44 44 43 42 44 44 44 44 43 42 41 39 38 39 41 42 43 43 43 43 42 42 41 40 38 37 36 38 35 32 33 32 31 32 35 41 43 43 43 41 40 39 39 38 37 36 34 35 33 32 32 30 31 32 31 31 30 28 28 25 23 24 23 23 24 24 23 22 23 23 21 22 21 18 15 12 11 12 12 11 10 7 5
56 54 53 52 50 45 45 43 42 42 41 41 42 42 41 40 39 38 37 38 39 40 41 43 43 43 43 42 41 41 39 34 32 33 33 33 32 31 31 31 36 41 44 44 43 42 40 39 39 39 38 37 37 36 35 34 32 32 33 33 33 31 30 29 27 26 26 25 25 24 25 25 25 25 26 25 24 21 20 19 17 14 14 14 13 12 9 6
58 57 55 54 52 49 47 46 43 41 40 40 40 40 39 39 38 37 36 35 36 37 38 41 42 43 43 43 43 43 45 40 34 33 30 29 29 29 30 31 35 38 43 46 45 44 42 41 40 40 40 39 39 38 37 36 34 34 33 33 34 33 33 31 30 28 27 27 26 26 26 27 27 27 28 28 26 22 21 22 21 19 17 16 16 14 11 9
58 58 57 56 55 52 50 48 44 42 40 40 40 39 39 38 37 36 34 34 34 34 35 37 39 42 42 42 44 46 49 45 38 39 35 32 29 25 24 28 33 37 41 45 46 45 43 43 41 41 41 40 40 39 38 36 37 38 37 36 36 35 34 33 32 31 30 30 29 29 29 28 28 30 31 30 27 24 23 24 23 22 21 19 18 17 14 12
59 58 58 58 57 54 52 50 47 44 41 42 42 40 39 37 36 36 34 33 33 33 33 34 36 40 40 41 44 48 52 45 38 39 37 36 34 29 25 24 26 31 36 42 45 46 46 44 43 41 40 41 42 40 38 36 37 40 40 38 37 36 36 35 35 33 32 32 32 32 32 30 30 31 34 33 27 25 25 25 25 24 24 23 21 20 18 16
58 58 58 58 58 56 55 53 50 47 45 44 43 41 40 38 37 37 35 33 31 31 32 32 33 36 39 41 45 51 53 45 40 39 33 33 35 32 31 27 25 25 29 37 42 46 48 46 44 40 39 40 42 41 40 39 39 40 40 39 39 37 37 38 38 36 34 34 33 34 34 33 33 35 37 35 28 26 26 25 26 25 25 25 23 22 21 20
56 57 57 58 58 57 56 55 52 50 49 46 44 42 41 39 39 38 36 34 31 30 31 30 30 33 36 41 46 53 52 44 43 41 33 31 31 31 31 30 29 25 25 32 37 42 45 46 43 40 38 39 41 42 42 42 41 41 40 39 40 40 40 41 41 39 36 36 35 35 36 37 38 39 39 35 29 26 26 27 27 27 26 26 26 25 24 22
54 54 55 56 58 57 57 56 54 52 51 48 45 43 42 41 41 39 37 34 31 30 30 29 30 32 34 39 47 51 49 44 44 42 37 33 31 31 31 31 30 27 25 27 32 37 41 44 43 40 39 38 39 38 40 44 43 41 40 40 41 42 45 45 43 42 38 37 37 33 37 42 45 45 39 34 31 28 28 29 28 28 27 26 26 26 26 25
52 52 52 53 56 57 57 57 56 55 53 50 47 45 43 42 41 40 38 36 33 31 30 30 30 32 34 40 46 46 44 43 43 42 39 36 33 32 32 32 31 29 27 27 28 33 37 40 41 41 41 38 36 35 36 39 41 42 41 41 41 43 49 50 46 44 41 40 38 32 38 44 42 43 40 34 32 31 31 31 30 30 29 28 28 28 27 27
51 51 51 51 53 56 57 57 57 56 55 52 49 47 44 43 43 42 40 38 36 33 31 30 30 30 34 40 42 40 41 43 43 42 41 38 35 33 33 32 32 31 29 28 27 30 34 37 38 40 42 41 38 38 35 34 37 37 37 42 43 41 45 48 50 48 44 44 39 33 43 46 38 40 41 35 33 32 33 32 31 32 31 30 29 28 28 28
50 51 51 51 52 53 55 55 57 57 57 54 50 49 46 44 45 43 42 40 37 35 34 32 29 30 35 40 39 37 40 44 43 41 41 41 36 33 33 33 33 32 30 29 27 28 30 34 37 37 40 42 40 39 36 35 37 36 35 38 39 40 39 41 49 51 44 45 42 36 43 43 38 43 43 36 33 32 32 32 32 33 33 32 31 30 29 29
49 50 49 50 51 52 52 53 55 56 58 56 52 51 47 45 45 44 43 42 39 36 35 35 32 31 36 40 40 37 39 42 42 39 39 40 39 36 33 34 36 34 32 29 27 26 24 28 34 37 39 40 40 38 31 30 35 41 42 37 31 33 36 36 45 52 46 42 43 40 41 38 34 41 43 39 36 34 33 32 32 33 33 33 33 32 32 30
49 49 49 49 50 51 50 51 54 54 56 57 54 51 47 44 44 43 43 43 42 38 36 37 33 31 35 39 40 40 39 40 38 37 39 39 39 38 34 35 38 37 35 31 28 25 21 24 31 37 39 39 38 33 26 30 36 37 37 37 35 31 30 32 36 46 47 41 41 42 46 44 37 39 44 42 38 35 35 34 32 33 34 34 34 34 33 33
49 49 50 49 49 50 50 51 53 54 56 57 55 52 47 43 42 43 45 43 42 39 37 36 33 32 37 42 44 44 40 38 36 35 38 40 39 38 33 32 36 39 39 35 32 29 25 25 29 35 39 39 39 35 35 40 36 31 33 36 38 33 31 33 28 31 39 37 35 38 45 49 45 43 46 45 42 39 38 36 34 34 36 36 36 35 35 34
49 50 50 50 49 49 50 51 52 54 56 56 56 52 48 45 41 43 48 48 46 45 42 42 42 43 45 46 46 44 37 34 34 37 39 40 39 36 29 27 32 36 37 37 36 34 32 31 31 36 41 44 48 48 46 40 32 33 35 33 33 31 30 36 33 30 36 37 38 42 45 48 47 46 46 45 44 43 42 41 38 37 37 38 38 37 37 36
50 50 49 49 49 50 51 51 51 52 55 57 58 55 52 50 45 48 55 56 55 51 45 45 46 45 45 42 39 37 37 34 34 39 40 38 36 34 31 29 29 32 36 39 40 38 36 36 37 41 45 47 50 52 48 39 36 37 31 28 35 34 31 37 40 40 41 41 45 48 48 51 51 50 49 47 46 46 45 44 43 42 39 39 39 38 38 37
49 50 50 48 48 50 50 51 51 51 54 58 60 61 60 57 54 56 59 60 58 52 47 44 41 40 40 39 36 36 37 37 37 37 35 35 35 35 36 35 32 32 36 39 41 41 39 40 44 47 47 45 44 48 47 38 36 37 31 30 34 32 32 34 36 39 37 40 47 45 42 48 51 50 52 49 49 50 48 46 45 45 43 41 42 41 40 39
48 50 51 48 47 48 49 50 52 52 54 57 60 64 65 61 59 57 56 58 59 54 50 46 42 41 38 35 36 38 36 36 37 37 34 34 36 38 38 38 36 34 34 34 38 40 41 45 49 48 47 44 41 43 44 39 36 34 32 32 33 30 29 32 36 39 35 37 44 40 40 49 50 51 55 53 53 53 52 51 49 47 46 44 44 43 42 41
50 50 50 50 49 47 48 49 50 53 56 59 61 66 67 63 58 56 55 56 58 57 53 48 47 45 41 38 37 38 40 38 36 35 34 35 37 38 39 40 39 37 34 35 39 40 42 46 47 46 45 43 41 38 37 40 41 39 36 33 35 33 27 29 32 33 35 38 39 38 43 54 54 54 58 57 56 55 54 55 53 51 52 49 47 45 44 43
51 50 51 52 49 49 50 48 49 54 59 61 62 65 66 63 59 58 57 53 51 54 52 48 49 47 44 44 42 40 43 41 36 34 33 35 38 38 39 41 41 41 39 37 38 41 45 44 41 45 48 44 40 38 38 42 45 47 45 40 37 33 28 29 27 23 28 33 37 36 36 48 55 55 62 62 59 58 57 57 56 55 55 53 50 48 46 45
52 52 53 52 50 50 48 50 54 56 58 61 64 64 62 62 60 58 59 54 47 48 50 49 50 49 46 44 44 45 45 43 39 35 32 33 37 38 39 41 42 44 44 41 37 39 43 42 40 46 51 47 41 40 42 44 46 47 48 46 42 35 28 28 28 26 24 25 30 27 22 36 44 42 52 59 58 59 57 57 59 58 56 56 55 52 49 47
54 55 55 54 53 49 48 56 58 54 58 62 64 62 59 61 59 56 59 52 43 47 52 51 50 49 48 47 46 45 43 43 41 36 33 33 32 35 39 40 42 45 45 44 39 37 39 40 44 47 50 49 46 47 47 42 43 46 47 46 41 38 35 31 28 26 25 26 23 16 15 29 36 31 37 49 56 60 58 57 59 58 57 57 56 54 51 49
57 57 57 56 55 52 56 61 56 55 61 62 63 61 59 61 57 56 55 34 27 44 53 52 51 48 49 50 49 46 40 40 41 37 34 33 31 33 37 41 42 43 46 44 38 39 40 39 42 47 48 47 46 48 49 44 42 46 47 41 37 39 40 36 30 28 31 31 24 20 20 25 39 44 40 45 58 60 59 59 58 57 56 55 55 55 54 51
59 59 59 58 57 57 59 58 57 61 61 59 63 60 59 60 55 59 48 13 11 39 50 53 52 44 47 50 50 49 44 40 39 37 34 33 34 34 35 39 40 40 45 45 41 43 43 40 39 42 44 46 48 49 48 46 46 47 45 39 39 39 36 35 36 37 35 30 26 26 21 17 38 57 43 39 59 64 62 62 59 58 56 52 52 51 52 51
60 61 61 59 58 59 58 58 61 60 56 58 60 58 59 58 57 60 41 10 15 36 45 51 52 45 45 49 51 51 48 42 36 34 36 34 34 37 36 36 36 37 41 44 45 46 45 43 40 39 41 45 49 48 45 47 49 48 43 38 39 38 35 35 36 39 35 28 27 28 24 15 31 56 40 27 51 64 62 60 57 60 58 52 51 50 51 51
62 64 63 60 62 62 61 63 64 58 56 59 57 57 59 58 59 48 21 12 24 34 41 49 52 51 47 46 52 52 48 45 38 33 35 35 33 36 37 35 34 34 36 38 42 47 47 45 41 39 42 43 45 44 43 46 46 45 41 38 39 36 37 37 35 38 29 21 29 37 38 24 22 52 47 33 54 67 62 60 56 56 56 52 50 48 47 47
60 64 64 64 65 65 67 67 66 61 60 61 59 59 59 60 62 37 7 18 31 30 43 50 51 55 50 47 51 53 51 49 46 39 35 37 37 37 36 35 34 32 33 36 38 42 44 43 40 40 41 39 40 42 42 41 40 41 39 36 32 25 28 32 32 34 19 10 30 46 48 35 25 47 46 31 46 50 44 50 50 51 55 53 52 50 48 46
55 59 62 65 65 67 70 67 66 65 62 64 61 62 62 52 44 29 17 27 28 31 49 53 52 56 53 51 50 54 58 52 49 45 39 38 40 42 41 40 41 33 29 36 38 37 41 44 42 40 39 38 38 37 38 38 36 38 39 37 26 12 15 19 17 19 14 16 38 42 38 35 36 57 57 42 42 32 26 34 34 35 39 40 40 39 39 39
52 55 59 64 65 67 68 64 65 66 64 66 61 65 69 42 21 27 35 33 25 35 50 49 53 57 54 55 50 50 53 47 47 47 41 39 39 42 43 41 43 37 30 35 37 31 31 37 42 42 40 40 40 39 38 40 40 40 41 41 30 11 7 11 9 9 10 20 39 39 30 25 31 56 67 60 58 51 48 50 41 37 37 35 35 33 33 33
51 55 59 62 64 65 65 63 67 68 65 66 64 68 62 32 20 35 42 37 32 39 46 48 54 55 53 57 53 48 47 44 47 47 41 39 37 39 43 41 42 40 35 34 33 30 23 23 35 44 45 45 46 46 43 41 43 43 41 43 40 28 16 11 10 11 8 10 21 28 23 12 22 52 59 48 51 50 49 49 41 40 43 42 43 43 42 41
51 55 57 60 63 64 65 65 68 69 65 64 68 71 54 27 30 46 44 39 41 44 48 51 56 54 49 51 48 44 44 42 44 44 42 43 41 40 43 44 44 43 39 30 26 32 28 24 34 42 45 49 49 48 45 38 37 38 39 42 44 43 36 25 20 18 12 6 12 23 24 16 26 54 56 45 53 51 45 46 40 37 39 38 40 42 42 42
52 55 56 59 63 64 66 66 67 68 67 67 70 72 60 37 35 49 50 46 48 53 52 47 49 50 43 41 42 41 42 40 40 41 42 45 45 43 41 42 45 45 45 37 27 28 26 27 40 40 35 44 49 50 49 41 32 29 36 45 45 45 45 33 24 21 14 7 11 22 26 24 27 45 53 53 57 54 51 53 48 46 45 42 41 39 39 40
53 55 56 59 62 64 66 67 67 66 66 70 70 65 62 49 38 47 56 52 50 55 55 47 44 46 44 42 44 46 44 39 37 39 41 42 41 44 45 42 43 45 47 44 34 28 22 24 39 42 35 39 43 42 46 47 40 32 34 42 42 42 43 30 13 11 12 6 8 19 24 22 20 28 43 49 50 50 51 48 44 45 43 38 34 30 29 30
53 54 55 59 62 64 66 64 65 66 63 68 68 60 57 52 44 47 55 55 53 54 56 52 46 48 49 48 48 48 46 42 39 38 38 38 37 44 52 48 44 44 44 43 37 32 27 21 29 38 38 38 34 30 34 41 45 43 39 38 34 26 29 30 15 5 8 6 3 15 24 23 28 32 40 44 45 42 39 35 32 32 30 28 29 28 29 29
51 51 54 59 61 63 65 62 62 65 64 67 65 56 53 52 48 50 55 59 57 55 56 53 49 50 50 51 51 48 48 48 46 40 36 36 36 39 48 51 48 45 41 41 40 37 30 21 20 25 30 30 27 29 35 36 39 43 44 44 42 30 24 27 22 9 6 8 6 11 14 16 29 40 44 45 46 42 35 34 33 31 31 31 30 30 29 28
50 52 55 60 62 61 61 60 60 64 66 69 63 52 52 53 51 53 56 59 58 55 56 54 51 52 50 48 46 46 48 47 45 41 35 35 36 32 36 45 49 47 42 39 40 38 32 25 19 17 22 26 27 32 38 39 38 40 43 44 43 42 34 28 28 23 11 5 4 6 7 10 21 34 43 44 42 38 33 33 31 27 26 23 20 20 18 17
53 54 55 60 62 58 59 60 61 64 66 66 60 51 51 53 52 55 55 56 57 54 54 53 51 51 50 47 43 45 47 42 42 43 36 35 38 32 31 37 42 46 43 39 40 41 37 31 23 17 18 24 28 32 35 37 38 38 41 45 43 44 39 23 22 32 28 14 9 6 4 5 9 15 25 31 30 25 20 20 20 16 13 12 11 11 11 12
57 56 54 61 62 57 59 63 61 62 62 61 58 51 50 51 52 56 56 53 54 52 48 49 50 48 48 47 45 47 47 41 42 44 39 38 39 35 32 32 34 40 41 41 42 42 38 33 27 24 25 26 27 28 29 31 37 38 40 44 45 47 45 28 17 25 27 22 22 18 10 14 19 17 16 19 21 18 14 13 12 8 5 7 8 9 10 12
60 56 51 57 61 57 59 62 61 61 58 58 59 53 51 52 51 53 55 53 52 50 45 44 46 45 44 45 45 47 45 39 39 43 41 37 36 35 34 30 30 35 38 39 42 42 37 32 29 28 29 32 32 32 32 30 31 33 35 39 41 44 48 41 31 28 21 16 21 16 8 18 34 36 32 32 33 31 28 28 25 19 14 12 12 12 13 14
57 53 48 51 56 59 63 64 63 59 51 50 56 54 52 52 51 51 54 53 50 49 46 43 43 43 42 42 42 44 42 35 34 40 40 36 35 37 36 32 31 32 35 38 41 41 37 33 31 23 15 18 24 26 32 37 38 37 38 37 35 37 40 37 33 30 19 13 21 18 8 14 28 34 32 31 33 33 32 32 33 32 31 30 29 29 30 31
54 50 47 49 53 57 62 65 64 54 45 46 51 54 51 48 48 52 53 53 51 49 47 43 42 41 39 38 38 39 41 36 33 38 39 35 35 37 36 33 31 29 30 32 34 36 36 36 35 25 11 10 14 15 23 36 43 43 44 43 40 40 41 37 32 27 13 7 17 19 11 14 29 41 43 36 33 33 31 27 27 28 29 31 31 32 34 37
54 51 53 57 58 58 59 62 66 58 49 48 48 51 52 46 44 47 49 50 49 46 45 42 40 38 35 35 36 36 39 38 33 35 39 38 37 37 38 36 33 30 29 29 29 31 33 36 39 37 31 29 29 23 21 25 27 30 38 43 44 43 43 40 35 31 26 20 25 33 31 26 31 42 48 47 42 43 44 40 36 34 33 33 33 31 30 31
52 52 61 68 61 59 61 61 64 62 57 53 48 49 51 47 43 43 42 44 45 44 42 38 37 38 36 36 36 34 36 38 34 29 30 36 37 35 35 36 35 33 30 30 32 31 31 34 38 41 43 45 42 32 26 23 18 18 23 27 28 26 28 32 33 33 35 29 27 39 42 36 37 41 43 43 42 43 45 44 40 40 39 38 39 39 38 39
51 52 64 69 57 54 62 63 61 60 57 54 48 48 52 49 45 45 42 42 44 44 42 36 35 37 37 37 36 34 34 36 35 29 26 31 35 33 33 34 34 33 31 30 32 31 32 33 35 37 39 43 42 38 37 34 26 21 19 18 17 14 15 24 27 27 31 28 26 34 36 34 42 47 43 41 41 42 42 41 39 38 37 34 34 36 38 40
50 55 67 69 56 56 65 65 61 59 55 52 48 48 53 52 48 48 46 43 43 44 43 41 40 38 37 37 35 35 37 38 37 34 30 28 28 29 31 32 32 35 34 32 33 32 31 32 33 34 35 37 38 37 39 39 34 32 30 27 26 25 25 28 29 29 31 31 31 34 36 37 43 48 51 50 48 47 45 44 43 40 37 36 35 34 34 36
49 56 68 64 48 51 64 64 61 60 55 53 51 50 52 53 50 48 45 44 44 44 44 44 44 41 37 37 37 37 38 37 35 33 29 26 26 27 30 31 33 38 39 36 35 35 33 30 28 29 31 34 35 35 36 38 37 36 36 34 33 34 34 36 37 38 36 34 34 34 37 40 38 41 50 53 49 47 46 45 44 40 38 40 40 37 36 36
46 52 66 63 44 44 59 61 59 60 56 52 51 51 50 51 51 48 45 42 43 45 44 41 41 40 36 34 36 36 34 31 28 26 25 26 27 27 27 29 31 36 40 40 38 37 34 28 23 23 24 24 26 26 29 30 28 28 34 37 36 36 37 37 38 38 35 33 34 35 38 40 36 33 40 45 43 40 39 37 36 35 35 37 38 37 37 36
46 46 61 65 49 45 56 57 54 56 55 50 50 50 50 50 51 50 46 41 38 39 39 35 33 34 34 33 33 30 26 23 22 21 21 24 26 26 23 22 24 28 34 38 38 37 37 31 24 21 18 16 16 17 17 15 12 20 35 40 38 37 36 36 37 37 35 35 35 35 36 36 33 29 34 42 43 40 39 35 34 35 37 37 37 38 38 38
Wind_Direction
246 245 243 242 241 239 239 239 239 240 241 242 244 245 246 247 247 248 249 250 250 250 250 250 250 249 248 247 246 245 244 243 242 240 240 238 234 232 232 231 232 233 234 234 235 236 237 239 241 242 245 249 249 249 250 250 251 252 250 245 243 248 251 253 260 261 260 264 263 257 257 255 256 257 254 252 251 248 240 239 239 239 270 287 297 306 272 244
246 246 245 244 243 243 242 241 241 241 241 241 242 243 245 246 247 247 248 249 250 250 249 250 250 250 250 248 248 247 248 247 246 244 243 242 238 234 233 232 232 233 234 234 234 235 236 237 240 242 244 247 248 248 249 249 248 247 247 246 246 250 253 255 260 262 260 262 262 259 256 256 257 258 257 255 253 250 241 240 248 254 268 265 265 265 258 249
246 245 244 243 244 245 244 244 244 244 244 243 243 244 244 244 246 246 247 248 248 249 249 249 249 250 250 250 250 250 249 250 249 247 247 248 244 237 234 233 232 232 233 234 233 233 234 235 238 241 244 245 246 247 247 248 247 246 245 247 249 251 255 257 257 260 260 259 261 261 257 256 257 258 257 256 255 253 245 242 255 258 254 248 241 240 241 240
244 244 243 242 242 244 244 245 246 246 247 247 246 246 246 245 245 246 246 247 247 247 248 248 248 248 249 250 250 251 251 253 252 250 250 249 245 240 236 234 234 233 233 234 234 233 233 234 235 239 243 245 246 246 247 247 246 247 245 245 250 252 255 257 256 259 261 258 257 259 259 257 256 258 258 257 255 254 249 247 255 250 242 242 240 233 228 226
243 242 242 240 240 241 241 242 245 246 248 248 248 249 249 248 246 246 247 247 247 247 247 247 247 247 247 248 249 250 251 253 255 252 250 248 244 242 237 234 234 234 233 233 234 233 232 232 233 236 239 243 246 245 246 247 247 248 249 248 250 252 253 255 256 258 259 258 256 256 259 258 256 257 258 258 255 254 252 250 250 242 238 242 245 243 233 220
241 240 240 239 239 238 237 237 241 243 244 246 249 251 251 251 250 249 249 249 249 248 247 247 246 246 245 246 247 248 247 248 253 252 250 249 245 241 238 234 232 232 233 233 233 233 233 232 231 234 236 240 244 245 247 248 249 251 253 252 251 252 252 253 255 256 258 258 257 256 257 258 257 257 256 256 256 257 256 252 248 240 238 246 249 250 244 224
240 239 238 238 238 237 236 235 237 239 241 244 247 251 250 252 254 253 252 251 250 249 248 247 246 246 245 244 245 246 245 243 246 248 248 250 247 242 239 235 231 229 230 231 232 233 233 232 231 233 235 238 242 244 246 248 250 252 252 253 252 252 252 252 255 256 257 258 258 257 255 256 257 257 256 254 254 256 257 254 249 242 239 246 253 256 252 235
239 238 237 237 236 236 235 233 233 234 238 242 245 249 249 250 254 254 254 254 252 251 249 248 247 246 244 244 243 243 244 241 242 248 248 249 250 247 242 238 236 232 229 229 230 231 232 233 232 233 234 238 241 243 245 248 252 252 252 254 254 254 253 253 255 256 257 258 259 258 256 254 256 258 257 253 252 254 255 256 253 248 243 243 250 256 256 246
240 238 236 236 235 234 233 231 231 230 232 238 241 246 248 247 250 252 255 255 254 253 251 249 248 247 244 244 243 242 243 240 240 246 247 246 248 248 247 244 242 238 233 231 229 229 231 232 232 233 235 238 241 243 245 247 251 253 254 256 257 257 255 254 255 255 256 257 258 259 258 255 254 257 257 252 250 251 252 256 256 253 249 245 245 251 255 253
241 239 237 236 234 233 232 230 230 228 227 232 236 241 245 244 245 249 254 254 251 253 252 250 248 247 244 242 243 243 243 240 237 240 241 242 244 245 245 246 246 242 236 233 230 229 230 232 233 233 235 239 241 242 244 245 248 252 254 257 258 258 256 254 254 254 254 255 257 259 259 257 254 254 254 251 248 249 251 253 256 256 253 249 245 246 251 254
241 240 238 237 235 232 230 228 227 226 225 228 232 235 239 241 243 248 250 248 247 249 250 250 248 246 245 242 242 243 243 240 237 236 234 235 239 241 243 243 244 241 234 233 231 230 230 231 232 233 235 238 240 241 242 244 247 251 254 257 258 258 257 254 253 253 254 255 256 259 261 258 255 251 249 251 251 251 253 252 254 256 255 252 248 246 247 250
240 240 239 238 236 232 229 226 225 224 223 225 228 231 234 237 243 245 244 244 244 245 247 247 244 242 243 242 241 242 242 241 239 237 233 232 233 236 239 239 239 237 232 230 230 230 231 231 231 232 234 237 240 242 243 243 246 250 253 256 259 259 257 254 253 253 253 255 255 260 264 258 255 253 249 253 256 254 255 253 253 255 255 255 251 248 247 247
239 239 238 238 236 234 231 227 223 222 222 222 224 228 230 234 240 240 239 243 243 243 245 243 242 239 239 242 243 242 241 239 239 237 235 233 231 230 233 235 235 234 232 229 226 225 228 230 230 231 233 236 239 240 243 244 245 248 252 255 258 259 258 254 253 253 253 254 254 258 264 259 257 258 253 253 256 254 253 252 252 253 254 255 254 250 247 246
238 237 237 237 237 234 233 230 225 222 221 221 221 223 227 230 234 236 240 242 241 241 242 240 240 237 237 244 246 242 239 238 236 236 234 233 230 227 226 229 232 232 230 228 225 222 222 225 228 232 233 235 238 239 242 245 245 247 251 252 253 254 258 257 254 252 253 255 254 255 261 261 260 259 254 252 254 253 252 251 251 252 252 253 254 253 249 246
238 236 236 237 237 235 233 231 228 224 221 220 220 221 224 228 231 235 239 238 238 239 239 238 236 231 236 245 246 240 237 236 234 232 233 232 230 227 223 223 226 228 228 224 222 221 221 222 224 228 232 233 236 239 240 244 244 244 244 247 248 247 251 256 256 253 252 255 254 252 258 263 262 259 255 253 255 255 254 252 250 251 252 253 253 253 253 249
238 236 235 234 235 235 233 231 228 226 223 220 220 221 222 227 230 232 235 237 237 234 230 233 231 228 236 244 247 242 236 236 233 230 231 232 230 228 222 218 219 221 223 219 216 216 217 223 225 225 229 231 233 236 238 242 243 241 240 242 242 245 249 253 256 256 254 256 255 251 254 260 265 263 260 257 257 257 257 254 251 251 251 252 253 253 254 253
238 237 235 232 231 233 233 231 228 226 225 221 220 221 221 225 229 231 234 234 232 226 223 228 229 227 235 244 247 242 237 236 232 227 229 230 229 228 222 215 215 215 216 214 210 207 205 218 225 224 226 230 231 231 229 233 236 234 236 240 240 243 246 246 252 257 255 255 256 255 256 258 261 263 262 261 259 259 259 256 253 252 251 251 252 253 253 253
239 237 235 232 229 230 232 231 228 226 226 222 219 219 220 223 226 229 229 226 222 219 217 218 213 214 228 239 241 240 238 236 231 225 226 228 225 223 218 214 213 213 213 213 211 208 204 212 220 222 223 225 225 221 220 226 230 228 229 235 239 239 241 243 247 254 254 254 256 258 260 261 261 262 261 261 261 260 259 257 254 252 251 251 251 252 252 251
239 237 235 234 231 229 229 230 228 225 224 223 219 219 221 222 226 229 229 223 215 209 209 209 205 212 228 237 238 240 239 235 229 224 221 223 222 216 210 210 214 214 213 213 213 212 210 213 216 218 220 222 223 222 222 227 231 233 232 233 239 241 243 248 247 247 251 255 258 258 260 263 264 264 261 258 260 260 258 257 255 253 251 251 251 251 252 252
238 237 236 235 232 229 227 227 227 224 223 222 219 218 220 220 220 224 226 225 221 215 214 216 214 220 233 237 237 240 237 231 227 224 220 220 221 214 205 203 208 213 215 215 216 214 213 217 218 217 219 223 227 228 228 230 233 237 237 239 245 247 249 253 252 252 254 256 258 260 262 264 264 265 264 259 258 259 257 256 254 253 251 251 251 250 251 252
238 237 235 234 233 231 227 225 225 223 221 222 220 219 219 216 214 219 222 223 225 222 216 216 216 218 226 233 237 239 234 230 228 227 222 219 221 214 205 201 201 209 214 215 218 218 216 220 221 221 223 226 230 233 232 232 235 240 242 245 250 251 250 252 254 256 258 257 259 261 264 265 264 265 265 261 258 258 257 255 253 253 252 250 251 250 249 250
238 237 234 233 233 232 229 225 224 221 220 221 221 220 219 216 215 220 225 226 224 220 215 214 214 214 220 230 237 238 234 229 227 228 220 212 215 212 206 203 201 206 210 211 216 218 219 221 222 223 226 229 232 234 234 233 237 241 243 245 248 250 248 249 253 257 257 257 260 262 262 265 266 266 266 264 259 258 259 256 252 252 252 250 249 249 249 248
239 238 234 231 231 231 230 226 223 221 220 221 221 220 218 216 218 221 227 228 222 216 213 212 211 212 217 223 229 234 233 229 226 228 223 213 214 213 209 205 203 205 208 209 212 213 217 221 222 223 224 228 231 231 232 235 237 239 240 241 243 244 245 249 254 258 257 257 261 263 265 267 268 267 266 264 262 259 260 259 255 252 252 250 248 248 249 248
238 238 234 230 230 230 227 224 222 220 220 221 220 218 216 217 219 220 223 225 219 212 209 209 210 210 212 216 222 227 230 230 226 226 225 218 216 214 212 208 206 207 206 209 214 217 221 222 223 223 222 225 229 230 232 234 236 239 238 236 238 241 245 248 251 259 262 261 262 264 269 270 267 267 267 265 265 263 260 261 259 254 251 251 250 248 248 248
235 235 232 228 228 228 223 221 221 219 218 219 218 216 216 218 219 220 224 225 219 212 207 207 208 207 206 210 218 223 226 228 226 224 223 220 218 215 213 210 209 211 207 207 214 222 225 223 222 223 223 225 226 228 230 232 236 240 239 237 237 238 244 250 249 251 260 263 262 260 262 269 267 266 269 269 266 264 261 261 260 257 254 253 252 250 248 249
234 232 229 227 226 224 221 220 219 217 217 218 216 214 216 217 217 220 223 221 215 208 203 204 208 207 205 207 212 219 225 228 226 224 221 218 217 216 215 212 212 214 211 209 216 223 224 221 222 224 225 226 227 228 229 230 235 239 241 241 240 240 240 246 248 246 251 255 258 249 244 271 276 265 263 269 268 264 263 261 258 257 257 255 255 253 251 249
234 230 227 226 223 219 217 218 216 215 216 215 213 214 216 215 215 219 220 219 214 205 200 201 206 208 207 207 209 212 219 225 223 222 218 213 212 212 215 215 214 215 213 214 221 224 220 218 221 225 227 229 229 230 230 230 233 238 242 243 243 243 240 242 246 246 248 251 255 252 248 268 276 268 261 265 267 265 264 261 257 257 257 257 257 257 255 252
234 227 225 224 221 219 217 216 215 216 217 212 210 214 214 212 215 216 216 218 183 195 200 199 198 204 208 208 210 210 215 221 219 215 213 211 210 209 213 217 217 217 215 215 221 223 218 217 220 221 225 230 230 231 232 233 234 238 243 244 244 247 247 246 246 245 246 250 250 248 244 253 268 269 266 264 266 265 260 259 259 260 259 259 260 259 257 255
233 223 221 221 219 219 219 219 218 217 216 210 210 213 210 212 215 211 211 217 161 180 197 198 191 198 205 205 209 212 214 218 218 213 208 208 210 211 213 216 218 220 219 220 223 224 221 221 223 222 224 227 230 232 233 234 236 239 243 247 248 250 251 248 246 245 245 244 242 237 231 233 265 267 260 249 262 264 261 261 262 263 263 262 261 261 260 259
230 222 220 218 216 216 216 218 219 218 214 209 209 209 209 212 210 204 209 209 174 172 185 188 189 196 199 201 206 210 213 216 219 216 208 205 208 213 215 216 216 219 221 224 227 226 225 227 229 231 232 230 231 235 234 235 238 241 244 247 250 250 249 248 244 242 243 241 238 236 232 223 258 268 258 243 258 267 267 265 264 265 265 264 263 262 262 262
225 221 218 215 215 215 213 214 215 213 211 208 207 206 206 207 202 200 209 186 176 169 175 179 187 194 195 198 202 206 210 215 218 215 206 203 205 208 210 212 212 215 220 224 226 227 228 230 230 233 235 233 235 237 237 239 238 239 241 240 243 240 236 239 234 230 234 232 237 241 237 225 237 261 261 255 263 272 274 269 266 266 266 266 265 264 263 263
215 215 214 212 213 212 211 212 210 207 207 205 204 204 202 199 200 204 186 176 180 172 171 176 185 191 195 199 201 204 206 209 214 214 208 202 203 206 207 209 208 207 215 220 223 227 230 231 229 230 234 232 233 235 237 239 234 232 231 225 223 208 208 221 215 219 223 227 238 241 235 226 234 253 259 260 261 264 270 272 270 265 264 266 266 265 264 264
208 208 208 207 208 208 209 210 206 203 203 202 202 202 200 196 203 199 179 175 182 171 171 179 187 191 195 197 201 204 203 205 209 211 212 207 206 209 209 212 211 208 211 215 217 223 231 235 232 230 232 230 230 230 230 231 229 226 222 216 213 200 205 220 206 222 225 229 238 237 231 223 231 252 260 260 261 262 264 267 268 262 261 263 266 267 267 266
207 205 204 204 206 205 205 205 203 202 202 202 200 198 198 197 194 187 178 178 176 167 173 183 186 190 195 196 199 200 197 201 207 208 208 206 206 209 210 213 214 213 214 214 214 215 220 233 231 227 228 227 227 227 229 232 230 229 226 221 218 214 220 232 224 234 232 226 228 223 224 202 215 248 257 259 263 266 268 271 271 267 267 268 269 270 270 269
204 203 203 203 204 203 202 202 203 202 201 201 197 195 198 197 182 181 178 174 168 166 175 183 184 186 191 196 198 199 196 198 204 206 206 206 207 209 210 211 212 212 212 211 212 214 217 230 229 226 227 227 227 227 229 232 232 234 231 224 221 219 224 235 241 242 236 226 205 205 217 212 229 251 256 259 264 265 267 272 271 269 269 269 269 269 270 270
202 203 203 203 203 201 201 201 201 201 201 198 194 195 200 199 183 180 180 175 169 168 170 175 181 180 181 190 195 199 201 201 201 202 206 211 212 213 212 212 213 212 210 209 208 209 215 229 231 229 230 230 231 230 229 227 227 231 226 223 227 227 226 233 246 245 237 239 213 205 219 224 239 258 258 257 263 263 264 268 267 269 270 271 273 272 271 271
202 202 202 203 202 199 198 200 200 199 200 198 194 194 200 203 195 183 181 179 175 174 172 168 177 181 178 185 194 198 199 201 202 200 205 210 213 216 216 214 215 216 215 214 211 211 216 230 233 232 231 231 231 233 234 232 230 229 224 227 234 233 230 233 243 237 227 240 223 213 223 219 216 251 260 258 263 264 265 268 270 272 274 275 277 274 271 271
201 200 202 202 200 197 196 197 199 198 199 201 200 198 199 202 200 187 181 181 179 182 180 172 177 188 185 185 193 196 194 196 199 199 203 206 212 219 217 215 215 217 219 217 214 217 219 228 238 236 234 235 234 231 233 234 233 234 236 235 232 228 230 232 233 239 229 233 207 214 229 222 208 231 255 259 263 265 267 270 271 273 276 277 278 279 278 276
197 198 202 200 196 196 195 195 197 197 198 201 200 199 198 198 197 189 184 184 184 185 186 180 182 191 193 192 192 191 194 198 197 197 200 204 212 221 219 217 216 215 217 217 216 217 215 217 232 233 231 233 230 223 222 226 227 229 235 238 237 234 232 229 228 232 231 241 240 215 224 221 215 234 252 257 260 262 265 271 271 273 279 281 284 286 285 281
194 194 198 198 194 193 194 194 195 195 196 198 197 195 195 193 191 188 185 187 187 186 189 189 188 190 193 196 192 190 195 199 198 196 200 205 209 216 220 219 217 216 216 216 219 221 216 216 223 222 218 217 217 220 224 228 225 222 224 227 231 235 239 243 244 245 249 268 257 215 221 226 223 240 252 254 257 263 268 273 275 277 282 285 288 287 281 274
189 189 194 196 192 189 190 190 192 194 195 196 195 193 191 188 184 184 185 189 189 189 193 196 194 192 192 193 193 193 193 195 198 199 200 207 209 212 217 217 216 216 214 211 215 219 218 221 223 217 210 209 217 227 233 236 233 229 229 227 228 230 234 244 255 251 251 255 257 255 264 248 225 236 250 253 260 270 274 275 277 278 276 273 274 268 258 251
185 185 189 193 189 186 186 186 189 194 196 197 197 194 188 183 180 182 186 191 192 191 192 195 196 196 194 193 194 195 193 192 197 201 203 209 212 214 214 214 215 215 214 213 216 218 219 224 230 232 231 230 231 232 233 235 233 229 228 230 233 233 230 231 242 251 251 247 253 261 259 254 253 246 247 255 260 263 265 264 266 269 244 234 249 251 246 243
183 181 184 191 189 185 184 183 185 192 194 197 200 198 190 183 180 181 185 189 191 190 188 190 195 196 196 198 197 194 192 191 195 202 207 210 214 217 216 216 216 215 214 217 220 220 219 223 228 234 240 240 242 243 242 246 246 239 231 226 226 228 229 230 235 247 253 242 243 252 250 256 262 260 257 261 263 263 266 266 263 261 250 238 238 240 238 236
180 179 180 188 188 186 186 183 182 184 184 186 191 192 187 184 184 184 185 186 189 190 189 190 195 198 199 202 202 197 193 192 195 202 207 210 213 216 216 216 216 214 214 217 218 217 215 216 220 224 236 239 241 248 248 249 251 252 250 243 235 232 230 228 232 242 253 243 237 243 249 252 260 264 261 259 264 266 268 270 269 267 263 260 257 255 255 256
177 175 177 186 190 188 187 187 186 181 172 171 179 182 180 180 185 187 186 187 190 193 193 193 195 199 199 199 201 201 199 198 200 202 204 208 211 213 213 212 213 214 215 218 219 219 217 216 215 215 211 217 225 230 237 242 245 246 250 252 253 251 245 245 249 249 250 248 239 242 258 252 249 256 258 256 258 263 267 269 272 272 272 271 268 265 265 266
174 170 169 176 186 191 190 189 190 186 174 166 169 174 175 175 179 185 186 187 189 192 194 194 193 193 195 195 195 198 201 202 205 206 205 206 210 213 214 214 214 215 215 218 220 221 222 221 220 220 223 227 229 230 236 245 248 247 249 252 254 257 257 254 251 247 250 263 262 262 272 274 259 252 254 256 258 262 266 265 265 269 272 272 272 268 265 264
173 170 168 170 176 186 191 188 187 186 180 173 168 171 176 176 175 182 187 188 189 190 191 191 189 188 189 191 190 192 199 202 206 209 209 210 213 214 215 217 217 215 216 219 220 219 219 223 224 226 231 236 238 241 249 255 255 248 247 248 250 255 258 248 241 246 255 256 261 268 271 275 273 262 254 258 264 264 266 267 269 273 274 273 273 272 269 268
174 173 174 174 171 177 184 184 183 183 178 173 170 170 177 180 178 181 187 190 193 193 190 189 192 194 194 193 189 187 191 198 203 205 204 207 210 210 210 212 214 213 213 214 217 217 218 225 230 230 235 241 241 243 247 250 252 247 239 239 242 243 248 246 243 251 257 248 254 273 275 272 276 272 262 264 270 268 268 274 279 281 279 280 283 282 279 277
178 174 174 176 174 175 181 183 184 182 175 171 170 171 176 178 179 181 184 186 191 195 196 196 197 201 203 203 200 194 193 195 197 199 200 201 204 206 206 207 209 211 212 212 216 217 220 228 233 233 238 243 241 241 245 247 249 250 246 246 251 253 257 261 260 260 261 258 259 270 272 267 273 276 271 270 273 275 276 281 284 285 282 283 288 287 284 282
183 179 174 172 170 174 180 181 181 179 175 174 174 173 176 177 176 178 180 183 185 188 196 200 200 201 203 205 207 206 205 204 200 200 202 203 206 209 211 212 211 209 210 214 218 218 220 227 233 233 239 244 242 241 244 246 250 254 257 256 257 258 258 258 261 260 259 260 260 263 264 264 270 280 278 276 278 281 281 281 284 287 285 286 288 284 281 280
186 185 180 174 167 170 175 176 177 175 173 177 177 173 176 179 179 179 180 183 187 186 190 197 199 197 197 202 209 211 213 215 216 218 220 220 218 215 216 218 215 210 210 211 215 218 217 220 229 231 235 245 247 243 243 248 255 260 261 258 254 254 254 254 258 260 258 260 263 259 258 265 277 287 283 278 279 281 280 281 285 287 285 284 283 279 278 279
189 185 183 179 172 172 176 173 172 173 173 177 180 177 179 183 186 186 181 180 187 190 189 193 194 191 191 198 206 209 209 213 219 225 231 232 227 220 221 224 220 217 215 212 211 215 216 215 219 222 227 241 248 246 246 252 263 262 257 255 254 254 257 260 261 264 265 264 262 259 262 277 288 288 277 272 273 277 279 279 280 280 279 278 277 276 277 279
Height
3084 3086 3089 3092 3094 3096 3099 3101 3103 3106 3108 3110 3112 3114 3115 3117 3119 3120 3122 3123 3125 3127 3129 3130 3132 3133 3135 3136 3137 3138 3139 3140 3141 3142 3142 3146 3154 3159 3160 3161 3163 3164 3166 3168 3170 3172 3174 3175 3177 3178 3179 3180 3181 3182 3183 3184 3185 3187 3188 3188 3188 3189 3189 3190 3191 3193 3193 3193 3193 3194 3194 3194 3194 3194 3194 3195 3195 3195 3195 3195 3195 3195 3195 3194 3194 3193 3193 3193
3078 3081 3084 3086 3089 3091 3094 3096 3099 3101 3104 3106 3108 3110 3112 3114 3115 3117 3119 3120 3122 3124 3126 3127 3129 3130 3132 3133 3135 3136 3137 3137 3137 3137 3140 3146 3152 3155 3157 3158 3160 3161 3163 3165 3167 3170 3172 3173 3175 3176 3177 3178 3178 3180 3181 3182 3183 3184 3185 3185 3186 3187 3187 3189 3190 3191 3192 3192 3192 3192 3193 3193 3193 3193 3193 3194 3194 3194 3194 3195 3195 3195 3195 3194 3194 3193 3192 3192
3072 3075 3078 3081 3084 3086 3089 3091 3094 3097 3099 3102 3104 3106 3108 3110 3112 3114 3116 3117 3118 3120 3123 3124 3126 3127 3129 3130 3132 3133 3134 3134 3133 3135 3141 3145 3147 3151 3153 3154 3157 3159 3160 3162 3164 3166 3169 3171 3173 3174 3175 3175 3176 3178 3179 3179 3181 3182 3182 3182 3183 3185 3185 3187 3189 3189 3190 3191 3190 3190 3191 3192 3192 3191 3192 3192 3193 3193 3194 3194 3194 3194 3194 3193 3193 3192 3192 3191
3066 3069 3072 3075 3078 3081 3084 3087 3090 3092 3094 3097 3100 3102 3104 3106 3108 3110 3112 3113 3115 3117 3119 3121 3123 3124 3126 3127 3129 3131 3132 3131 3129 3135 3141 3141 3143 3146 3149 3151 3154 3156 3158 3159 3161 3163 3165 3168 3170 3172 3173 3173 3173 3175 3176 3177 3179 3179 3179 3180 3181 3183 3184 3185 3186 3187 3188 3188 3188 3188 3189 3190 3190 3190 3190 3191 3191 3192 3193 3193 3193 3193 3193 3192 3192 3191 3191 3191
3060 3063 3066 3069 3073 3076 3079 3082 3085 3087 3090 3093 3095 3098 3100 3102 3104 3106 3108 3110 3111 3114 3116 3117 3119 3121 3123 3124 3126 3128 3129 3128 3127 3133 3136 3136 3139 3142 3145 3148 3150 3153 3155 3156 3158 3160 3162 3164 3167 3169 3170 3170 3171 3173 3174 3175 3177 3176 3176 3178 3179 3181 3182 3183 3184 3185 3185 3185 3186 3186 3187 3187 3188 3188 3188 3189 3189 3190 3192 3192 3192 3192 3192 3191 3191 3191 3191 3190
3054 3057 3060 3063 3067 3070 3073 3077 3081 3083 3086 3089 3091 3093 3096 3098 3100 3103 3105 3106 3108 3110 3112 3114 3115 3117 3119 3121 3123 3124 3126 3126 3126 3129 3131 3132 3136 3139 3141 3144 3146 3149 3151 3153 3155 3157 3159 3161 3164 3165 3166 3168 3168 3170 3171 3173 3174 3174 3174 3175 3177 3179 3180 3181 3182 3182 3182 3183 3184 3184 3184 3185 3185 3185 3186 3186 3187 3189 3190 3190 3191 3191 3191 3191 3190 3190 3190 3190
3049 3052 3055 3058 3061 3065 3068 3072 3076 3079 3082 3085 3087 3089 3092 3094 3096 3099 3101 3103 3104 3106 3108 3110 3112 3113 3116 3118 3119 3120 3120 3123 3124 3125 3128 3130 3133 3136 3138 3140 3141 3143 3146 3148 3151 3154 3156 3158 3161 3162 3164 3165 3165 3167 3169 3171 3172 3171 3171 3172 3174 3176 3177 3179 3179 3179 3180 3180 3181 3182 3182 3182 3183 3183 3182 3183 3185 3187 3188 3188 3188 3189 3190 3189 3189 3190 3190 3190
3043 3046 3049 3052 3056 3059 3063 3066 3070 3074 3078 3081 3084 3086 3088 3090 3093 3095 3098 3100 3101 3103 3105 3107 3108 3109 3112 3114 3115 3115 3113 3120 3125 3123 3126 3129 3130 3134 3136 3137 3138 3140 3142 3144 3147 3151 3153 3155 3158 3159 3161 3162 3163 3165 3167 3169 3169 3167 3169 3170 3172 3174 3175 3176 3176 3176 3177 3177 3178 3178 3179 3180 3180 3179 3178 3180 3183 3185 3185 3185 3186 3187 3188 3188 3188 3188 3189 3189
3035 3039 3043 3046 3050 3054 3057 3061 3065 3069 3074 3077 3080 3082 3085 3087 3090 3092 3094 3097 3098 3100 3102 3103 3105 3106 3109 3110 3110 3109 3108 3118 3125 3121 3122 3126 3129 3131 3133 3135 3136 3138 3140 3142 3145 3148 3150 3152 3154 3157 3159 3160 3161 3163 3165 3167 3165 3164 3166 3168 3170 3171 3173 3174 3172 3173 3174 3174 3175 3174 3175 3177 3177 3176 3174 3176 3180 3182 3183 3183 3184 3185 3185 3186 3187 3187 3187 3188
3028 3032 3036 3040 3044 3048 3052 3056 3060 3064 3068 3072 3075 3078 3081 3084 3086 3088 3091 3094 3095 3097 3099 3100 3101 3102 3104 3105 3105 3103 3105 3116 3122 3118 3119 3123 3126 3128 3131 3133 3134 3136 3138 3139 3142 3144 3146 3149 3152 3155 3157 3157 3158 3160 3162 3163 3162 3162 3165 3166 3167 3168 3169 3170 3169 3170 3171 3171 3172 3171 3172 3173 3173 3172 3170 3172 3178 3180 3181 3181 3181 3182 3183 3184 3184 3185 3185 3186
3022 3025 3029 3033 3037 3042 3046 3051 3055 3059 3063 3067 3071 3074 3078 3080 3082 3085 3088 3090 3092 3093 3095 3097 3098 3099 3100 3101 3100 3098 3104 3113 3116 3116 3117 3120 3123 3126 3129 3131 3132 3133 3134 3136 3138 3141 3144 3147 3150 3153 3154 3153 3154 3156 3158 3159 3160 3161 3163 3163 3163 3164 3165 3165 3165 3166 3168 3168 3169 3169 3169 3169 3167 3166 3167 3171 3175 3178 3178 3179 3179 3179 3180 3181 3182 3182 3183 3183
3015 3019 3022 3027 3031 3035 3040 3045 3049 3054 3058 3062 3066 3070 3074 3077 3079 3082 3084 3086 3088 3090 3092 3094 3095 3095 3096 3095 3094 3096 3102 3108 3110 3113 3116 3118 3121 3124 3126 3128 3129 3131 3132 3133 3136 3139 3141 3144 3147 3150 3150 3150 3151 3154 3155 3156 3158 3159 3160 3160 3160 3161 3159 3160 3162 3163 3166 3165 3166 3169 3164 3161 3160 3161 3167 3172 3174 3175 3175 3176 3177 3177 3178 3179 3179 3180 3180 3181
3009 3013 3016 3020 3024 3029 3033 3038 3044 3048 3053 3057 3062 3066 3070 3073 3076 3078 3080 3083 3085 3086 3088 3090 3091 3092 3091 3089 3091 3095 3100 3104 3105 3109 3114 3115 3118 3120 3123 3125 3126 3128 3129 3131 3133 3136 3138 3141 3144 3146 3147 3148 3149 3151 3151 3153 3156 3156 3158 3158 3158 3157 3152 3155 3159 3159 3162 3161 3165 3169 3158 3153 3158 3159 3165 3170 3170 3172 3172 3172 3174 3174 3175 3176 3176 3177 3178 3179
3003 3007 3010 3014 3018 3022 3027 3032 3038 3043 3047 3053 3057 3061 3065 3070 3072 3075 3077 3080 3082 3084 3084 3085 3087 3088 3086 3084 3088 3093 3096 3098 3101 3106 3110 3112 3114 3117 3119 3122 3124 3125 3126 3128 3130 3132 3134 3137 3140 3142 3144 3145 3146 3148 3150 3151 3153 3155 3156 3153 3153 3152 3148 3150 3155 3156 3159 3158 3163 3167 3152 3148 3157 3158 3161 3166 3167 3168 3168 3169 3171 3171 3172 3173 3173 3174 3175 3176
2997 3001 3005 3008 3012 3016 3021 3026 3032 3037 3042 3047 3053 3057 3061 3066 3068 3072 3075 3076 3079 3080 3080 3081 3083 3084 3082 3080 3084 3089 3091 3092 3097 3103 3106 3108 3111 3113 3116 3119 3121 3122 3124 3126 3128 3129 3132 3134 3136 3138 3140 3142 3144 3146 3148 3148 3149 3152 3151 3147 3148 3148 3145 3147 3149 3151 3156 3156 3160 3162 3149 3145 3153 3155 3158 3162 3164 3165 3165 3166 3168 3168 3169 3169 3170 3171 3172 3173
2992 2995 2999 3003 3007 3011 3016 3021 3026 3031 3037 3042 3048 3053 3058 3062 3065 3069 3071 3073 3076 3076 3076 3076 3078 3081 3079 3076 3079 3084 3086 3088 3094 3100 3103 3105 3107 3109 3112 3115 3117 3119 3120 3123 3125 3127 3130 3133 3134 3135 3137 3139 3141 3143 3147 3147 3145 3145 3144 3143 3144 3145 3144 3145 3144 3147 3152 3153 3154 3155 3147 3145 3149 3152 3156 3159 3160 3162 3161 3163 3164 3165 3166 3166 3167 3168 3168 3169
2986 2989 2994 2998 3002 3006 3011 3015 3020 3027 3032 3037 3043 3049 3054 3058 3061 3065 3068 3069 3069 3069 3070 3070 3075 3079 3075 3073 3075 3077 3081 3085 3091 3097 3099 3100 3103 3105 3107 3110 3112 3115 3117 3120 3122 3125 3128 3130 3130 3132 3133 3135 3138 3141 3144 3140 3136 3138 3140 3140 3141 3142 3143 3142 3141 3143 3148 3149 3149 3149 3145 3144 3147 3149 3153 3155 3157 3158 3158 3159 3161 3161 3162 3162 3163 3164 3164 3166
2980 2984 2988 2992 2997 3002 3006 3010 3016 3022 3027 3033 3039 3044 3050 3054 3057 3061 3061 3061 3062 3064 3065 3065 3071 3072 3067 3067 3068 3070 3076 3082 3088 3093 3094 3095 3098 3100 3103 3106 3109 3111 3114 3117 3119 3121 3124 3126 3127 3128 3129 3130 3132 3133 3131 3127 3128 3134 3137 3136 3136 3139 3139 3138 3139 3141 3143 3145 3146 3146 3141 3140 3144 3146 3149 3152 3153 3154 3153 3155 3157 3157 3157 3158 3159 3160 3161 3162
2974 2978 2982 2987 2992 2996 3001 3005 3010 3016 3023 3028 3034 3041 3047 3050 3053 3054 3053 3053 3051 3051 3052 3054 3057 3057 3057 3061 3064 3068 3076 3080 3084 3086 3087 3089 3092 3096 3101 3104 3106 3109 3111 3113 3115 3117 3119 3121 3122 3122 3122 3122 3121 3122 3122 3124 3129 3132 3134 3134 3134 3136 3135 3135 3138 3138 3141 3143 3142 3141 3139 3138 3140 3141 3145 3148 3149 3149 3149 3150 3152 3152 3153 3153 3154 3156 3157 3158
2967 2971 2977 2981 2986 2991 2996 3001 3005 3011 3018 3022 3028 3035 3036 3038 3042 3042 3041 3043 3041 3041 3044 3046 3048 3052 3055 3061 3065 3069 3073 3076 3078 3079 3082 3086 3090 3095 3098 3100 3103 3105 3106 3108 3110 3113 3116 3117 3116 3115 3114 3115 3117 3120 3123 3127 3130 3131 3133 3134 3133 3134 3133 3133 3135 3135 3139 3141 3138 3138 3137 3135 3136 3137 3140 3144 3144 3143 3143 3145 3145 3147 3149 3149 3150 3151 3153 3154
2961 2966 2970 2975 2980 2985 2990 2996 3001 3006 3011 3015 3020 3022 3021 3025 3028 3028 3032 3035 3037 3041 3043 3043 3049 3052 3054 3059 3063 3066 3068 3071 3074 3076 3080 3086 3089 3091 3093 3096 3099 3099 3100 3105 3107 3110 3112 3111 3109 3110 3112 3115 3119 3121 3124 3127 3129 3130 3132 3132 3131 3131 3131 3132 3132 3133 3137 3137 3134 3136 3134 3130 3133 3134 3134 3138 3139 3137 3137 3140 3140 3142 3144 3144 3145 3146 3148 3150
2956 2960 2964 2970 2974 2979 2986 2991 2996 3002 3006 3008 3010 3010 3013 3021 3025 3029 3033 3032 3032 3038 3039 3041 3047 3049 3053 3059 3061 3063 3064 3067 3070 3072 3076 3082 3083 3085 3089 3092 3093 3094 3098 3102 3103 3105 3106 3104 3105 3109 3112 3117 3119 3120 3123 3125 3127 3129 3129 3129 3128 3128 3129 3129 3130 3131 3134 3133 3131 3134 3131 3126 3128 3130 3128 3130 3132 3132 3132 3133 3135 3136 3137 3139 3140 3141 3143 3145
2949 2954 2959 2963 2968 2974 2979 2985 2992 2996 2998 2998 2999 3002 3010 3020 3026 3030 3033 3028 3028 3031 3033 3037 3041 3044 3051 3055 3056 3059 3060 3062 3066 3069 3073 3077 3078 3081 3085 3087 3089 3092 3095 3096 3097 3098 3098 3098 3103 3108 3112 3114 3115 3117 3121 3123 3124 3123 3124 3124 3124 3125 3127 3127 3128 3129 3130 3130 3129 3130 3127 3121 3123 3124 3122 3123 3126 3128 3128 3127 3130 3132 3131 3133 3135 3137 3139 3140
2943 2948 2952 2957 2963 2968 2972 2981 2986 2986 2988 2991 2993 3000 3011 3018 3022 3026 3028 3026 3024 3025 3028 3032 3036 3041 3045 3049 3053 3055 3055 3058 3063 3065 3070 3073 3075 3078 3081 3084 3087 3088 3090 3092 3093 3093 3092 3097 3103 3106 3108 3109 3111 3114 3117 3118 3116 3116 3118 3119 3120 3123 3125 3125 3128 3128 3127 3128 3127 3129 3124 3114 3115 3117 3114 3118 3120 3122 3124 3123 3124 3126 3126 3128 3130 3132 3134 3135
2936 2940 2945 2952 2957 2961 2970 2975 2973 2976 2983 2985 2989 2999 3009 3014 3018 3023 3026 3023 3020 3022 3025 3028 3032 3037 3041 3047 3050 3050 3051 3055 3058 3062 3066 3069 3072 3075 3077 3081 3083 3084 3086 3088 3090 3090 3091 3097 3102 3102 3103 3105 3107 3109 3110 3111 3112 3112 3112 3113 3117 3122 3124 3125 3126 3126 3127 3126 3124 3128 3123 3106 3107 3112 3109 3112 3115 3113 3117 3119 3117 3119 3121 3123 3124 3126 3129 3131
2928 2933 2938 2944 2949 2958 2964 2961 2962 2973 2976 2977 2987 2997 3003 3008 3014 3020 3023 3018 3011 3012 3017 3022 3027 3032 3037 3042 3044 3048 3051 3050 3054 3060 3063 3066 3070 3072 3074 3077 3079 3080 3083 3087 3088 3087 3089 3094 3097 3097 3099 3101 3102 3103 3104 3108 3110 3107 3106 3111 3116 3120 3122 3122 3124 3124 3124 3124 3122 3125 3122 3106 3100 3105 3105 3107 3108 3107 3110 3111 3110 3113 3116 3117 3119 3121 3125 3127
2919 2925 2930 2936 2943 2950 2949 2949 2959 2966 2965 2972 2985 2992 2997 3004 3011 3016 3019 3011 3000 3000 3009 3016 3021 3027 3032 3035 3038 3043 3045 3045 3052 3056 3058 3063 3066 3069 3070 3071 3074 3076 3080 3085 3083 3081 3085 3090 3091 3092 3096 3097 3097 3098 3100 3106 3107 3102 3104 3111 3114 3116 3118 3120 3123 3122 3120 3122 3121 3120 3123 3115 3096 3092 3100 3102 3101 3102 3102 3103 3104 3107 3110 3112 3114 3116 3119 3122
2909 2916 2922 2928 2935 2939 2940 2946 2954 2954 2959 2972 2980 2985 2992 2999 3006 3011 3010 2999 2987 2991 3003 3009 3017 3025 3028 3032 3036 3038 3039 3042 3047 3050 3055 3061 3062 3064 3066 3067 3070 3073 3077 3079 3076 3078 3084 3086 3086 3089 3092 3091 3092 3095 3099 3104 3103 3100 3104 3109 3112 3114 3115 3118 3119 3117 3118 3119 3117 3116 3121 3118 3092 3081 3093 3095 3092 3094 3094 3096 3099 3100 3104 3108 3110 3112 3114 3118
2898 2906 2912 2920 2928 2932 2938 2944 2945 2950 2962 2971 2974 2981 2989 2996 3002 3002 2996 2986 2979 2984 2995 3004 3013 3019 3021 3027 3032 3035 3038 3041 3043 3047 3053 3056 3058 3061 3062 3065 3070 3072 3074 3075 3074 3078 3082 3083 3085 3087 3087 3087 3090 3094 3097 3100 3099 3100 3104 3107 3111 3112 3112 3116 3114 3114 3117 3111 3108 3113 3117 3114 3090 3074 3087 3089 3081 3084 3087 3092 3096 3096 3099 3104 3107 3109 3110 3112
2887 2895 2904 2913 2918 2923 2930 2935 2939 2951 2960 2964 2970 2979 2986 2990 2991 2987 2979 2973 2975 2981 2988 2996 3004 3010 3015 3022 3027 3031 3036 3037 3040 3045 3049 3052 3056 3058 3060 3064 3068 3069 3072 3073 3073 3076 3078 3080 3082 3083 3083 3085 3089 3092 3094 3096 3098 3100 3104 3107 3109 3109 3110 3112 3109 3112 3113 3099 3099 3107 3108 3111 3092 3066 3075 3082 3073 3077 3084 3089 3092 3093 3095 3098 3101 3104 3105 3107
2877 2885 2894 2901 2905 2912 2919 2922 2932 2945 2951 2957 2966 2973 2979 2980 2975 2969 2964 2966 2975 2980 2982 2989 2997 3005 3011 3015 3019 3025 3030 3033 3036 3039 3043 3047 3051 3053 3057 3061 3063 3067 3069 3069 3070 3073 3075 3076 3077 3078 3079 3084 3087 3089 3090 3093 3096 3098 3101 3105 3105 3106 3108 3107 3106 3107 3101 3088 3092 3098 3098 3107 3092 3061 3065 3076 3072 3075 3080 3082 3087 3089 3090 3092 3095 3098 3099 3101
2869 2876 2884 2890 2896 2904 2908 2915 2928 2937 2942 2950 2958 2963 2969 2968 2959 2953 2957 2966 2973 2973 2976 2984 2991 2999 3006 3010 3013 3017 3021 3026 3030 3033 3037 3042 3045 3046 3050 3052 3055 3060 3061 3063 3067 3069 3069 3070 3073 3075 3076 3080 3084 3085 3087 3089 3092 3094 3096 3099 3101 3102 3102 3098 3096 3093 3085 3080 3085 3091 3093 3097 3085 3063 3062 3070 3071 3074 3076 3077 3083 3086 3087 3088 3090 3093 3094 3096
2863 2870 2877 2883 2889 2895 2903 2915 2925 2930 2935 2944 2951 2955 2957 2952 2944 2945 2954 2961 2964 2965 2973 2981 2986 2993 3000 3004 3008 3013 3018 3022 3025 3030 3034 3038 3041 3043 3046 3048 3051 3054 3055 3059 3063 3065 3066 3067 3070 3072 3072 3076 3078 3078 3080 3081 3084 3086 3087 3091 3092 3094 3093 3088 3084 3081 3078 3077 3081 3088 3090 3085 3078 3066 3058 3062 3068 3071 3072 3075 3079 3082 3084 3086 3087 3090 3091 3092
2859 2866 2872 2878 2885 2892 2902 2911 2917 2923 2930 2937 2943 2947 2942 2935 2935 2944 2952 2954 2958 2965 2972 2976 2983 2991 2996 2999 3003 3008 3014 3019 3022 3026 3031 3035 3038 3040 3043 3045 3048 3051 3053 3057 3059 3061 3063 3061 3061 3064 3065 3068 3070 3071 3074 3076 3078 3079 3083 3086 3083 3084 3085 3080 3076 3075 3074 3076 3078 3084 3083 3073 3069 3061 3055 3060 3065 3067 3069 3071 3075 3078 3080 3083 3084 3086 3087 3089
2856 2862 2868 2874 2880 2888 2897 2903 2909 2917 2924 2929 2936 2935 2926 2924 2931 2939 2945 2950 2957 2963 2969 2974 2980 2988 2995 2999 3002 3006 3010 3014 3019 3023 3026 3029 3031 3033 3036 3039 3042 3047 3050 3053 3055 3057 3058 3055 3055 3059 3060 3063 3065 3068 3073 3076 3076 3076 3081 3082 3077 3078 3080 3074 3071 3071 3072 3072 3072 3073 3069 3063 3062 3057 3057 3063 3062 3063 3067 3068 3071 3073 3075 3079 3080 3081 3083 3084
2851 2857 2863 2868 2873 2882 2890 2897 2904 2911 2917 2923 2925 2921 2918 2924 2929 2931 2940 2948 2950 2953 2963 2974 2979 2984 2992 2998 3001 3005 3008 3011 3015 3019 3022 3024 3027 3029 3032 3035 3038 3041 3044 3047 3049 3051 3053 3051 3053 3057 3058 3060 3062 3065 3069 3071 3072 3073 3073 3071 3072 3077 3077 3072 3070 3069 3070 3067 3062 3060 3059 3060 3062 3055 3054 3060 3058 3059 3063 3064 3067 3068 3070 3074 3074 3076 3078 3079
2845 2850 2856 2861 2868 2877 2884 2892 2899 2906 2913 2917 2914 2913 2919 2927 2928 2930 2937 2944 2945 2947 2954 2965 2974 2979 2984 2990 2994 2997 3003 3008 3011 3014 3017 3021 3023 3025 3028 3031 3034 3036 3038 3043 3046 3048 3049 3050 3051 3053 3054 3056 3060 3063 3065 3066 3068 3069 3066 3066 3073 3076 3072 3071 3069 3065 3066 3063 3057 3056 3055 3058 3060 3051 3048 3055 3056 3055 3057 3060 3064 3064 3065 3068 3069 3072 3073 3074
2840 2847 2853 2858 2865 2873 2880 2889 2896 2902 2910 2913 2911 2914 2921 2925 2928 2931 2935 2939 2943 2945 2947 2954 2964 2971 2975 2979 2985 2991 2997 3001 3004 3008 3011 3015 3017 3017 3020 3025 3028 3032 3035 3041 3044 3045 3048 3049 3048 3048 3051 3054 3058 3060 3060 3061 3064 3065 3064 3067 3070 3068 3066 3068 3065 3060 3059 3056 3052 3052 3051 3051 3052 3047 3047 3052 3053 3053 3054 3057 3060 3061 3062 3064 3065 3068 3069 3070
2839 2845 2850 2855 2862 2870 2878 2886 2893 2899 2905 2906 2907 2912 2917 2921 2926 2930 2934 2937 2939 2942 2945 2949 2956 2965 2971 2974 2978 2985 2990 2992 2996 3002 3006 3009 3011 3012 3015 3020 3024 3028 3033 3038 3041 3042 3045 3047 3045 3046 3048 3051 3053 3054 3053 3054 3057 3060 3061 3062 3063 3062 3062 3061 3058 3055 3054 3050 3046 3048 3046 3043 3043 3045 3047 3049 3050 3052 3053 3054 3057 3059 3060 3061 3062 3063 3064 3065
2836 2842 2847 2851 2859 2867 2877 2885 2890 2894 2897 2900 2905 2910 2913 2918 2924 2929 2933 2936 2937 2939 2943 2947 2951 2959 2967 2973 2977 2980 2984 2988 2993 2997 3001 3004 3007 3008 3011 3016 3020 3026 3031 3036 3038 3040 3043 3044 3043 3044 3045 3046 3046 3045 3046 3048 3051 3053 3054 3055 3056 3057 3058 3056 3052 3051 3051 3048 3044 3042 3040 3038 3040 3044 3045 3047 3049 3051 3052 3053 3054 3056 3057 3058 3058 3059 3060 3060
2833 2840 2843 2848 2857 2865 2874 2881 2884 2887 2894 2900 2904 2906 2910 2915 2921 2928 2933 2935 2936 2938 2941 2946 2950 2955 2961 2968 2973 2976 2981 2987 2991 2995 2998 3000 3002 3005 3007 3011 3017 3022 3028 3032 3034 3036 3038 3039 3041 3041 3041 3041 3041 3041 3044 3045 3046 3048 3048 3049 3050 3052 3055 3054 3048 3045 3048 3046 3043 3042 3039 3037 3040 3043 3043 3046 3048 3049 3050 3051 3051 3053 3054 3054 3055 3056 3056 3056
2831 2837 2839 2845 2854 2862 2870 2876 2879 2886 2893 2897 2899 2903 2908 2913 2918 2925 2930 2934 2936 2938 2941 2946 2950 2954 2959 2963 2967 2972 2977 2982 2986 2990 2994 2996 2998 3002 3005 3010 3014 3019 3024 3027 3029 3031 3035 3037 3038 3039 3038 3039 3039 3040 3041 3041 3041 3043 3042 3043 3046 3047 3049 3049 3044 3043 3044 3042 3042 3043 3039 3036 3039 3043 3043 3044 3046 3046 3048 3049 3049 3050 3051 3051 3052 3052 3052 3053
2828 2834 2840 2846 2853 2861 2868 2872 2877 2885 2890 2893 2898 2902 2906 2911 2916 2922 2927 2930 2934 2936 2940 2945 2949 2954 2958 2961 2965 2969 2974 2979 2984 2987 2990 2994 2998 3001 3004 3009 3012 3016 3020 3023 3025 3029 3033 3035 3035 3035 3036 3036 3037 3037 3037 3037 3037 3037 3036 3038 3041 3041 3043 3043 3042 3043 3041 3037 3040 3041 3034 3033 3038 3041 3042 3043 3043 3043 3044 3045 3047 3048 3049 3049 3049 3049 3049 3049
2827 2835 2842 2848 2854 2859 2863 2866 2871 2878 2884 2888 2894 2898 2904 2910 2915 2920 2924 2927 2930 2933 2938 2943 2947 2951 2956 2960 2964 2968 2973 2978 2982 2985 2989 2992 2995 2998 3002 3006 3009 3012 3015 3017 3019 3023 3027 3029 3031 3032 3034 3034 3034 3034 3033 3032 3032 3031 3031 3034 3035 3037 3040 3039 3039 3041 3037 3032 3036 3036 3029 3031 3036 3037 3038 3040 3039 3039 3040 3041 3042 3044 3045 3045 3045 3046 3046 3046
2828 2836 2843 2850 2856 2858 2861 2864 2869 2875 2880 2884 2889 2895 2902 2909 2915 2919 2922 2924 2927 2931 2935 2941 2945 2950 2954 2959 2964 2969 2972 2975 2978 2982 2986 2989 2992 2996 2999 3003 3006 3009 3012 3014 3018 3021 3023 3024 3025 3027 3028 3027 3027 3026 3024 3024 3025 3026 3027 3029 3031 3033 3035 3035 3035 3036 3032 3029 3031 3030 3027 3029 3033 3033 3033 3035 3035 3034 3036 3038 3039 3040 3040 3040 3041 3041 3041 3041
2827 2834 2839 2845 2853 2858 2861 2865 2869 2873 2877 2882 2888 2894 2900 2907 2914 2919 2922 2924 2926 2930 2935 2940 2944 2948 2954 2958 2963 2966 2969 2971 2974 2977 2981 2985 2989 2993 2997 3000 3004 3007 3010 3013 3016 3018 3020 3020 3020 3020 3020 3018 3018 3019 3019 3021 3023 3024 3024 3025 3027 3028 3029 3031 3031 3029 3029 3029 3027 3025 3027 3030 3030 3028 3027 3029 3030 3030 3031 3033 3034 3036 3036 3036 3036 3037 3037 3037
2827 2831 2833 2837 2845 2853 2858 2863 2867 2871 2876 2881 2886 2892 2898 2904 2910 2917 2922 2924 2926 2929 2935 2940 2943 2946 2950 2954 2958 2962 2965 2969 2972 2975 2980 2983 2986 2990 2994 2998 3001 3004 3007 3010 3012 3014 3015 3014 3015 3016 3015 3015 3017 3018 3020 3021 3022 3022 3023 3023 3024 3025 3025 3027 3026 3025 3027 3027 3022 3021 3027 3028 3027 3024 3022 3023 3026 3026 3026 3028 3030 3031 3032 3032 3032 3032 3032 3032
2827 2830 2833 2835 2839 2846 2853 2859 2865 2871 2876 2881 2886 2890 2895 2901 2907 2912 2918 2923 2926 2929 2933 2938 2942 2945 2948 2951 2954 2958 2963 2967 2971 2974 2977 2980 2983 2987 2991 2994 2998 3001 3004 3007 3008 3010 3011 3010 3011 3013 3013 3013 3016 3018 3018 3019 3020 3020 3021 3021 3022 3023 3023 3022 3022 3022 3024 3023 3019 3020 3022 3022 3022 3022 3018 3018 3022 3022 3022 3024 3026 3027 3027 3028 3028 3027 3026 3026
2826 2829 2833 2837 2841 2845 2852 2859 2865 2871 2876 2880 2885 2889 2893 2898 2904 2909 2913 2918 2923 2928 2931 2935 2939 2944 2947 2950 2953 2956 2958 2960 2965 2969 2973 2976 2980 2984 2987 2991 2994 2997 3000 3002 3004 3006 3007 3007 3008 3010 3010 3011 3013 3015 3015 3016 3017 3017 3018 3018 3019 3019 3019 3019 3018 3018 3018 3017 3016 3017 3015 3013 3016 3018 3015 3015 3018 3019 3019 3021 3021 3022 3022 3022 3023 3022 3020 3020
2827 2827 2831 2838 2844 2848 2853 2859 2864 2870 2875 2879 2883 2888 2892 2896 2901 2907 2911 2915 2919 2923 2928 2931 2936 2941 2945 2949 2951 2953 2955 2958 2962 2967 2971 2975 2977 2980 2982 2985 2987 2991 2995 2998 3000 3002 3004 3004 3005 3008 3008 3008 3009 3012 3013 3013 3014 3014 3014 3014 3015 3015 3014 3013 3012 3012 3012 3012 3012 3013 3011 3007 3011 3015 3012 3011 3013 3014 3015 3015 3015 3016 3016 3016 3015 3015 3014 3013
2829 2831 2833 2838 2844 2849 2853 2859 2864 2868 2873 2878 2881 2885 2891 2896 2899 2904 2910 2915 2917 2919 2923 2929 2934 2940 2945 2948 2950 2952 2956 2962 2966 2969 2971 2974 2975 2977 2979 2981 2984 2988 2990 2993 2996 2998 3001 3003 3004 3006 3007 3005 3006 3009 3010 3010 3012 3011 3008 3008 3008 3008 3008 3007 3007 3007 3007 3008 3009 3009 3006 3004 3007 3010 3008 3005 3006 3008 3007 3008 3010 3010 3010 3009 3008 3008 3008 3008
2831 2836 2839 2840 2844 2850 2854 2859 2865 2868 2871 2876 2880 2884 2890 2894 2899 2903 2908 2914 2919 2921 2925 2930 2935 2940 2943 2945 2948 2953 2958 2963 2966 2969 2971 2973 2975 2978 2980 2982 2984 2987 2988 2990 2993 2995 2998 3000 3001 3004 3005 3003 3004 3006 3007 3009 3010 3005 2999 3000 3002 3002 3003 3003 3003 3003 3003 3004 3004 3002 3001 3001 3003 3004 3001 2998 3000 3001 3001 3003 3004 3004 3003 3003 3002 3002 3003 3003